Location: Binningen
(47.7924°N, 8.7261°E)
Time: 07:48:51
(UTC+00:00)

Cosmos 44 Rocket - Pass Details

Date: 17 May 2021
Orbit: 636 x 753 km, 65.1° (Epoch: 20 June)

Event Time Altitude Azimuth Distance (km) Brightness Sun altitude
Rises 22:27:46 0° 321° (NW) 3,214 7.8 -21.6°
Reaches altitude 10° 22:30:11 10° 320° (NW) 2,282 6.8 -21.7°
Maximum altitude 22:35:25 77° 236° (SW) 768 3.3 -21.9°
Enters shadow 22:36:33 54° 165° (SSE) 896 3.4 -21.9°
